Weather History for Crestview, FL

Change the Weather History Date:

Monday, November 4, 2013

  Actual Average Record
Temperature  
Mean Temperature 58 °F -  
Max Temperature 75 °F 74 °F 84 °F (1975)
Min Temperature 42 °F 48 °F 27 °F (1999)
Degree Days  
Heating Degree Days 6    
Growing Degree Days 8 (Base 50)    
Moisture  
Dew Point 47 °F    
Average Humidity 69    
Maximum Humidity 92    
Minimum Humidity 43    
Precipitation  
Precipitation 0.00 in - - ()
Sea Level Pressure  
Sea Level Pressure 30.26 in    
Wind  
Wind Speed 3 mph (ENE)    
Max Wind Speed 12 mph    
Max Gust Speed -    
Visibility 10 miles    
Events      
Averages and records for this station are not official NWS values.
T = Trace of Precipitation, MM = Missing Value Source: NWS Daily Summary

Daily Weather History Graph

Daily Weather History Graph

Search for Another Location

Airport:

Trip Planner

Search our weather history database for the weather conditions in past years. The results will help you decide how hot, cold, wet, or windy it might be!

Date:

Astronomy

Nov. 04, 2013 Rise Set
Actual Time 6:03 AM CST 4:55 PM CST
Civil Twilight 5:38 AM CST 5:20 PM CST
Nautical Twilight 5:09 AM CST 5:48 PM CST
Astronomical Twilight 4:41 AM CST 6:17 PM CST
Moon 7:09 AM CST (11/4) 6:04 PM CST (11/4)
Length of Visible Light 11h 41m
Length of Day
10h 51m
New Moon, 2% of the Moon is Illuminated
Nov 4
New Moon
Nov 9
First Quarter
Nov 17
Full
Nov 25
Last Quarter
Dec 2
New

Hourly Weather History & Observations

Time (CST) Temp. Windchill Dew Point Humidity Pressure Visibility Wind Dir Wind Speed Gust Speed Precip Events Conditions
12:53 AM 42.1 °F - 39.0 °F 89% 30.24 in 10.0 mi Calm Calm - N/A   Clear
1:53 AM 43.0 °F 41.3 °F 39.9 °F 89% 30.23 in 10.0 mi ENE 3.5 mph - N/A   Clear
2:53 AM 43.0 °F - 39.9 °F 89% 30.23 in 10.0 mi Calm Calm - N/A   Clear
3:53 AM 44.1 °F - 39.9 °F 85% 30.23 in 10.0 mi Calm Calm - N/A   Clear
4:53 AM 44.1 °F - 39.9 °F 85% 30.25 in 10.0 mi Calm Calm - N/A   Clear
5:53 AM 42.1 °F 40.2 °F 39.9 °F 92% 30.26 in 9.0 mi NNE 3.5 mph - N/A   Clear
6:53 AM 46.0 °F 44.8 °F 42.1 °F 86% 30.27 in 10.0 mi NNE 3.5 mph - N/A   Clear
7:53 AM 53.1 °F - 45.0 °F 74% 30.29 in 10.0 mi ENE 5.8 mph - N/A   Clear
8:53 AM 60.1 °F - 45.0 °F 57% 30.29 in 10.0 mi East 11.5 mph - N/A   Clear
9:53 AM 66.0 °F - 46.9 °F 50% 30.30 in 10.0 mi East 8.1 mph - N/A   Clear
10:53 AM 69.1 °F - 48.0 °F 47% 30.31 in 10.0 mi ENE 4.6 mph - N/A   Clear
11:53 AM 72.0 °F - 48.9 °F 44% 30.28 in 10.0 mi ENE 3.5 mph - N/A   Clear
12:53 PM 73.9 °F - 50.0 °F 43% 30.25 in 10.0 mi ESE 5.8 mph - N/A   Clear
1:53 PM 73.9 °F - 50.0 °F 43% 30.25 in 10.0 mi Calm Calm - N/A   Clear
2:53 PM 75.0 °F - 51.1 °F 43% 30.24 in 10.0 mi NE 8.1 mph - N/A   Partly Cloudy
3:53 PM 73.0 °F - 51.1 °F 46% 30.23 in 10.0 mi ENE 5.8 mph - N/A   Clear
4:53 PM 64.9 °F - 55.0 °F 70% 30.25 in 10.0 mi Calm Calm - N/A   Clear
5:53 PM 62.1 °F - 53.1 °F 72% 30.26 in 10.0 mi Calm Calm - N/A   Partly Cloudy
6:53 PM 57.9 °F - 53.1 °F 84% 30.26 in 10.0 mi NE 3.5 mph - N/A   Clear
7:53 PM 59.0 °F - 51.1 °F 75% 30.27 in 10.0 mi ENE 4.6 mph - N/A   Mostly Cloudy
8:53 PM 59.0 °F - 51.1 °F 75% 30.28 in 10.0 mi ENE 4.6 mph - N/A   Clear
9:53 PM 57.9 °F - 50.0 °F 75% 30.28 in 10.0 mi Calm Calm - N/A   Clear
10:53 PM 57.0 °F - 50.0 °F 77% 30.28 in 10.0 mi East 4.6 mph - N/A   Clear
11:53 PM 57.9 °F - 48.9 °F 72% 30.26 in 10.0 mi East 6.9 mph - N/A   Clear